This demonstration page uses our WeatherBlox Daily Observations layout. Learn more.

Left ArrowRight Arrow

39.95238, -75.16362

Hourly Observations for June 21, 2022

Temp ( °F °C ) Dew Point ( °F °C ) Humidity (%) Winds ( mph kmh ) Pressure ( in mb ) Visibility ( mi km ) Precip ( " mm )
12:54 am 00:54 Partly Cloudy 68 20 52 11.1 57 57 SSW 6 9 30.14 1021 10 16 0.00 0.00
1:54 am 01:54 Mostly Clear 68 20 54 12.2 61 61 SW 5 7 30.12 1020 10 16 0.00 0.00
2:54 am 02:54 Partly Cloudy 65 18.3 55 12.8 70 70 SSW 3 6 30.11 1020 10 16 0.00 0.00
3:54 am 03:54 Mostly Cloudy 66 18.9 49 9.4 54 54 WSW 5 7 30.11 1020 10 16 0.00 0.00
4:54 am 04:54 Mostly Cloudy 65 18.3 53 11.7 66 66 SSW 5 7 30.13 1020 10 16 0.00 0.00
5:54 am 05:54 Mostly Cloudy 64 17.8 53 11.7 68 68 S 3 6 30.13 1020 10 16 0.00 0.00
6:54 am 06:54 Mostly Cloudy 67 19.4 54 12.2 63 63 W 6 9 30.15 1021 10 16 0.00 0.00
7:54 am 07:54 Mostly Cloudy 69 20.6 53 11.7 57 57 W 3 6 30.17 1022 10 16 0.00 0.00
8:54 am 08:54 Mostly Cloudy 71 21.7 52 11.1 51 51 Calm 30.17 1022 10 16 0.00 0.00
9:54 am 09:54 Mostly Cloudy 73 22.8 53 11.7 50 50 W 5 7 30.17 1022 10 16 0.00 0.00
10:54 am 10:54 Cloudy 75 23.9 54 12.2 48 48 SW 7 11 30.14 1021 10 16 0.00 0.00
11:54 am 11:54 Cloudy 76 24.4 55 12.8 48 48 VRB 7 11 30.14 1021 10 16 0.00 0.00
12:54 pm 12:54 Cloudy 78 25.6 55 12.8 45 45 SSW 9 15 30.13 1020 10 16 0.00 0.00
1:54 pm 13:54 Cloudy 79 26.1 54 12.2 42 42 SW 6 9 30.12 1020 10 16 0.00 0.00
2:54 pm 14:54 Cloudy 80 26.7 54 12.2 41 41 SW 9 15 30.10 1019 10 16 0.00 0.00
3:54 pm 15:54 Cloudy 81 27.2 53 11.7 38 38 SW 7 11 30.08 1019 10 16 0.00 0.00
4:54 pm 16:54 Mostly Cloudy 75 23.9 60 15.6 60 60 SSE 6 9 30.06 1018 10 16 0.01 0.25
5:54 pm 17:54 Mostly Cloudy 77 25 60 15.6 56 56 SE 6 9 30.06 1018 10 16 0.00 0.00
6:54 pm 18:54 Mostly Cloudy 76 24.4 61 16.1 60 60 SE 6 9 30.06 1018 10 16 0.00 0.00
7:54 pm 19:54 Mostly Cloudy 75 23.9 60 15.6 60 60 SE 5 7 30.06 1018 10 16 0.00 0.00
8:54 pm 20:54 Mostly Cloudy 74 23.3 61 16.1 64 64 SE 8 13 30.07 1018 10 16 0.00 0.00
9:54 pm 21:54 Mostly Cloudy 73 22.8 60 15.6 64 64 SSE 7 11 30.07 1018 10 16 0.00 0.00
10:54 pm 22:54 Clear 72 22.2 60 15.6 66 66 SSE 5 7 30.07 1018 10 16 0.00 0.00
11:54 pm 23:54 Mostly Clear 72 22.2 60 15.6 66 66 S 6 9 30.06 1018 10 16 0.00 0.00

Powered by AerisWeather